Location: Pasadena-CA
(34.1440°N, 118.1100°W)
Time: 16:19:47
(UTC-07:00)

A-11 Canister half - Visible Passes

Search period start: 28 May 2022 00:00
Search period end: 07 June 2022 00:00
Orbit: 1513 x 1686 km, 47.2° (Epoch: 28 May)

Date Brightness Start Highest point End Pass type
(mag) Time Alt. Az. Time Alt. Az. Time Alt. Az.
28 May 10.9 05:10:18 10° SSE 05:16:42 20° SE 05:22:57 10° E visible
29 May 10.9 04:47:54 10° SSE 04:53:51 18° SE 04:59:40 10° E visible
30 May 10.9 04:25:36 10° SSE 04:31:00 16° SE 04:36:18 10° E visible
31 May 10.9 04:03:22 10° SSE 04:08:09 15° ESE 04:12:51 10° E visible
01 Jun 10.9 03:41:19 10° SSE 03:45:18 13° ESE 03:49:14 10° E visible
02 Jun 11.0 03:19:33 10° SE 03:22:27 12° ESE 03:25:19 10° ESE visible
03 Jun 11.1 02:58:54 10° SE 02:59:36 10° ESE 03:00:19 10° ESE visible
03 Jun 9.6 04:53:42 10° SSW 05:03:10 52° SE 05:12:17 10° ENE visible
04 Jun 9.7 04:31:03 10° SSW 04:40:15 49° SE 04:49:18 10° ENE visible
05 Jun 9.7 04:09:30 15° SSW 04:17:22 46° SE 04:26:19 10° ENE visible
06 Jun 9.8 03:47:55 19° S 03:54:28 43° SE 04:03:19 10° ENE visible
